| time (UTC) | temp C | wind direction | speed KPH | gust KPH | rain 1hr cm | rain 24hr cm | rain mn cm | humidity % | barometer mb |
| 20260507192634 | 17 | 16 | 3.2 | 8.0 | 0.00 | 0.13 | 0.13 | 29 | 1006.0 |
| 20260507192131 | 17 | 269 | 3.2 | 8.0 | 0.00 | 0.13 | 0.13 | 29 | 1006.0 |
| 20260507191627 | 17 | 15 | 3.2 | 9.7 | 0.00 | 0.13 | 0.13 | 29 | 1006.1 |
| 20260507191124 | 18 | 252 | 3.2 | 6.4 | 0.00 | 0.13 | 0.13 | 30 | 1006.0 |
| 20260507190621 | 17 | 93 | 3.2 | 6.4 | 0.00 | 0.13 | 0.13 | 30 | 1005.9 |
| 20260507190120 | 17 | 202 | 1.6 | 6.4 | 0.00 | 0.13 | 0.13 | 31 | 1006.2 |
| 20260507185618 | 17 | 313 | 6.4 | 11.3 | 0.00 | 0.13 | 0.13 | 29 | 1006.0 |
| 20260507185114 | 16 | 49 | 0.0 | 4.8 | 0.00 | 0.13 | 0.13 | 29 | 1006.1 |
| 20260507184613 | 16 | 306 | 6.4 | 19.3 | 0.00 | 0.13 | 0.13 | 30 | 1006.3 |
| 20260507184110 | 17 | 184 | 8.0 | 8.0 | 0.00 | 0.13 | 0.13 | 28 | 1006.3 |
| 20260507183606 | 17 | 344 | 1.6 | 11.3 | 0.00 | 0.13 | 0.13 | 29 | 1006.4 |
| 20260507183103 | 16 | 183 | 4.8 | 9.7 | 0.00 | 0.13 | 0.13 | 30 | 1006.2 |
| 20260507182559 | 16 | 131 | 6.4 | 14.5 | 0.00 | 0.13 | 0.13 | 29 | 1006.4 |
| 20260507182055 | 17 | 7 | 4.8 | 9.7 | 0.00 | 0.13 | 0.13 | 29 | 1006.6 |
| 20260507181553 | 17 | 159 | 6.4 | 8.0 | 0.00 | 0.13 | 0.13 | 30 | 1006.6 |
| 20260507181049 | 17 | 306 | 4.8 | 6.4 | 0.00 | 0.13 | 0.13 | 29 | 1006.7 |
| 20260507180545 | 16 | 89 | 1.6 | 6.4 | 0.00 | 0.13 | 0.13 | 31 | 1006.5 |
| 20260507180042 | 17 | 0 | 3.2 | 9.7 | 0.00 | 0.13 | 0.13 | 33 | 1006.6 |
| 20260507175538 | 16 | 312 | 3.2 | 9.7 | 0.00 | 0.13 | 0.13 | 32 | 1006.4 |
| 20260507175037 | 16 | 152 | 4.8 | 14.5 | 0.00 | 0.13 | 0.13 | 30 | 1006.7 |
| 20260507174533 | 17 | 338 | 8.0 | 8.0 | 0.00 | 0.13 | 0.13 | 31 | 1006.7 |
| 20260507174031 | 17 | 9 | 4.8 | 6.4 | 0.00 | 0.13 | 0.13 | 32 | 1006.5 |
| 20260507173527 | 16 | 209 | 3.2 | 6.4 | 0.00 | 0.13 | 0.13 | 35 | 1006.5 |
| 20260507173025 | 16 | 149 | 11.3 | 11.3 | 0.00 | 0.13 | 0.13 | 33 | 1006.5 |
| 20260507172520 | 16 | 325 | 6.4 | 6.4 | 0.00 | 0.13 | 0.13 | 32 | 1006.5 |
| 20260507172017 | 17 | 154 | 8.0 | 12.9 | 0.00 | 0.13 | 0.13 | 32 | 1006.7 |
| 20260507171513 | 17 | 330 | 1.6 | 6.4 | 0.00 | 0.13 | 0.13 | 34 | 1006.5 |
| 20260507171011 | 16 | 23 | 3.2 | 6.4 | 0.00 | 0.13 | 0.13 | 37 | 1006.8 |
| 20260507170507 | 15 | 10 | 3.2 | 9.7 | 0.00 | 0.13 | 0.13 | 36 | 1007.0 |
| 20260507170004 | 16 | 264 | 4.8 | 11.3 | 0.00 | 0.13 | 0.13 | 34 | 1007.2 |
| 20260507165500 | 16 | 80 | 3.2 | 6.4 | 0.00 | 0.13 | 0.13 | 36 | 1006.8 |
| 20260507164956 | 16 | 179 | 3.2 | 8.0 | 0.00 | 0.13 | 0.13 | 37 | 1007.2 |
| 20260507164453 | 16 | 251 | 3.2 | 8.0 | 0.00 | 0.13 | 0.13 | 35 | 1007.1 |
| 20260507163949 | 16 | 253 | 3.2 | 9.7 | 0.00 | 0.13 | 0.13 | 36 | 1007.3 |
| 20260507163447 | 16 | 131 | 3.2 | 6.4 | 0.00 | 0.13 | 0.13 | 36 | 1007.2 |
| 20260507162944 | 15 | 287 | 0.0 | 14.5 | 0.00 | 0.13 | 0.13 | 36 | 1007.3 |
| 20260507162439 | 16 | 316 | 3.2 | 6.4 | 0.00 | 0.13 | 0.13 | 35 | 1007.4 |
| 20260507161937 | 15 | 185 | 6.4 | 8.0 | 0.00 | 0.13 | 0.13 | 36 | 1007.3 |
| 20260507161432 | 16 | 136 | 6.4 | 6.4 | 0.00 | 0.13 | 0.13 | 40 | 1007.2 |
| 20260507160929 | 15 | 163 | 3.2 | 11.3 | 0.00 | 0.13 | 0.13 | 41 | 1007.3 |
| 20260507160425 | 15 | 178 | 4.8 | 17.7 | 0.00 | 0.13 | 0.13 | 40 | 1007.5 |
| 20260507155921 | 15 | 285 | 8.0 | 11.3 | 0.00 | 0.13 | 0.13 | 38 | 1007.5 |
| 20260507155417 | 15 | 180 | 3.2 | 6.4 | 0.00 | 0.13 | 0.13 | 44 | 1007.5 |
| 20260507154915 | 15 | 8 | 3.2 | 14.5 | 0.00 | 0.13 | 0.13 | 40 | 1007.2 |
| 20260507154412 | 15 | 307 | 3.2 | 12.9 | 0.00 | 0.13 | 0.13 | 41 | 1007.5 |
| 20260507153909 | 15 | 150 | 6.4 | 8.0 | 0.00 | 0.13 | 0.13 | 46 | 1007.5 |
| 20260507153405 | 15 | 84 | 1.6 | 6.4 | 0.00 | 0.13 | 0.13 | 45 | 1007.3 |
| 20260507152902 | 15 | 210 | 3.2 | 11.3 | 0.00 | 0.13 | 0.13 | 45 | 1007.4 |
| 20260507152358 | 15 | 301 | 4.8 | 8.0 | 0.00 | 0.13 | 0.13 | 45 | 1007.4 |
| 20260507151854 | 14 | 260 | 4.8 | 12.9 | 0.00 | 0.13 | 0.13 | 45 | 1007.6 |
| 20260507151351 | 14 | 321 | 9.7 | 9.7 | 0.00 | 0.13 | 0.13 | 49 | 1007.7 |
| 20260507150847 | 14 | 234 | 6.4 | 9.7 | 0.00 | 0.13 | 0.13 | 50 | 1007.8 |
| 20260507150344 | 13 | 249 | 3.2 | 6.4 | 0.00 | 0.13 | 0.13 | 52 | 1007.7 |
| 20260507145840 | 14 | 29 | 6.4 | 6.4 | 0.00 | 0.13 | 0.13 | 52 | 1007.6 |
| 20260507145337 | 14 | 253 | 3.2 | 4.8 | 0.00 | 0.13 | 0.13 | 53 | 1007.8 |
| 20260507144834 | 13 | 114 | 1.6 | 3.2 | 0.00 | 0.13 | 0.13 | 55 | 1008.0 |
| 20260507144331 | 13 | 281 | 3.2 | 4.8 | 0.00 | 0.13 | 0.13 | 55 | 1007.8 |
| 20260507143827 | 13 | 357 | 1.6 | 6.4 | 0.00 | 0.13 | 0.13 | 56 | 1008.1 |
| 20260507143325 | 13 | 210 | 3.2 | 9.7 | 0.00 | 0.13 | 0.13 | 59 | 1008.0 |
| 20260507142821 | 12 | 251 | 1.6 | 6.4 | 0.00 | 0.13 | 0.13 | 60 | 1008.0 |
| 20260507142317 | 12 | 236 | 0.0 | 4.8 | 0.00 | 0.13 | 0.13 | 63 | 1007.9 |
| 20260507141814 | 12 | 170 | 1.6 | 6.4 | 0.00 | 0.13 | 0.13 | 61 | 1008.0 |
| 20260507141311 | 13 | 161 | 4.8 | 9.7 | 0.00 | 0.13 | 0.13 | 60 | 1008.1 |
| 20260507140807 | 13 | 139 | 6.4 | 9.7 | 0.00 | 0.13 | 0.13 | 59 | 1008.0 |
| 20260507140304 | 12 | 151 | 6.4 | 9.7 | 0.00 | 0.13 | 0.13 | 62 | 1008.2 |
| 20260507135802 | 12 | 169 | 3.2 | 6.4 | 0.00 | 0.13 | 0.13 | 62 | 1007.9 |
| 20260507135259 | 12 | 70 | 4.8 | 6.4 | 0.00 | 0.13 | 0.13 | 62 | 1008.1 |
| 20260507134755 | 12 | 96 | 0.0 | 1.6 | 0.00 | 0.13 | 0.13 | 63 | 1008.0 |
| 20260507134252 | 12 | 139 | 8.0 | 9.7 | 0.00 | 0.13 | 0.13 | 61 | 1008.0 |
| 20260507133748 | 12 | 151 | 4.8 | 11.3 | 0.00 | 0.13 | 0.13 | 63 | 1008.0 |
| 20260507133244 | 12 | 130 | 6.4 | 6.4 | 0.00 | 0.13 | 0.13 | 62 | 1008.1 |
| 20260507132742 | 12 | 230 | 0.0 | 4.8 | 0.00 | 0.13 | 0.13 | 66 | 1008.1 |
| 20260507132239 | 12 | 153 | 3.2 | 8.0 | 0.00 | 0.13 | 0.13 | 63 | 1008.1 |
| 20260507131735 | 12 | 116 | 0.0 | 6.4 | 0.00 | 0.13 | 0.13 | 66 | 1008.0 |
| 20260507131233 | 12 | 310 | 3.2 | 6.4 | 0.00 | 0.13 | 0.13 | 65 | 1008.1 |
| 20260507130729 | 11 | 74 | 3.2 | 3.2 | 0.00 | 0.13 | 0.13 | 66 | 1008.3 |
| 20260507130227 | 11 | 80 | 1.6 | 8.0 | 0.00 | 0.13 | 0.13 | 68 | 1008.3 |
| 20260507125725 | 11 | 111 | 0.0 | 6.4 | 0.00 | 0.13 | 0.13 | 69 | 1008.2 |
| 20260507125223 | 11 | 46 | 3.2 | 4.8 | 0.00 | 0.13 | 0.13 | 70 | 1008.1 |
| 20260507124719 | 11 | 152 | 3.2 | 6.4 | 0.00 | 0.13 | 0.13 | 70 | 1008.3 |
| 20260507124216 | 11 | 147 | 3.2 | 9.7 | 0.00 | 0.13 | 0.13 | 72 | 1008.1 |
| 20260507123715 | 11 | 188 | 1.6 | 4.8 | 0.00 | 0.13 | 0.13 | 72 | 1008.2 |
| 20260507123212 | 10 | 228 | 1.6 | 9.7 | 0.00 | 0.13 | 0.13 | 74 | 1008.2 |
| 20260507122707 | 10 | 169 | 1.6 | 6.4 | 0.00 | 0.13 | 0.13 | 77 | 1008.3 |
| 20260507122203 | 10 | 118 | 3.2 | 9.7 | 0.00 | 0.13 | 0.13 | 78 | 1008.5 |
| 20260507121659 | 10 | 127 | 4.8 | 8.0 | 0.00 | 0.13 | 0.13 | 81 | 1008.2 |
| 20260507121155 | 10 | 28 | 3.2 | 4.8 | 0.00 | 0.13 | 0.13 | 82 | 1008.1 |
| 20260507120651 | 10 | 161 | 3.2 | 8.0 | 0.00 | 0.13 | 0.13 | 83 | 1008.2 |
| 20260507120148 | 9 | 132 | 1.6 | 3.2 | 0.00 | 0.13 | 0.13 | 86 | 1008.3 |
| 20260507115644 | 9 | 134 | 0.0 | 4.8 | 0.00 | 0.13 | 0.13 | 86 | 1008.2 |
| 20260507115140 | 9 | 136 | 3.2 | 3.2 | 0.00 | 0.13 | 0.13 | 87 | 1008.2 |
| 20260507114636 | 9 | 49 | 0.0 | 3.2 | 0.00 | 0.13 | 0.13 | 87 | 1008.1 |
| 20260507114133 | 9 | 77 | 1.6 | 3.2 | 0.00 | 0.13 | 0.13 | 87 | 1008.2 |
| 20260507113631 | 9 | 113 | 0.0 | 3.2 | 0.00 | 0.13 | 0.13 | 88 | 1008.3 |
| 20260507113127 | 9 | 144 | 1.6 | 4.8 | 0.00 | 0.13 | 0.13 | 89 | 1008.1 |
| 20260507112625 | 8 | 165 | 3.2 | 6.4 | 0.00 | 0.13 | 0.13 | 89 | 1008.1 |
| 20260507112122 | 8 | 235 | 0.0 | 3.2 | 0.00 | 0.13 | 0.13 | 89 | 1008.0 |
| 20260507111619 | 8 | 150 | 0.0 | 6.4 | 0.00 | 0.13 | 0.13 | 89 | 1008.2 |
| 20260507111116 | 8 | 145 | 0.0 | 1.6 | 0.00 | 0.13 | 0.13 | 90 | 1008.2 |
| 20260507110612 | 8 | 164 | 3.2 | 3.2 | 0.00 | 0.13 | 0.13 | 91 | 1007.8 |
| 20260507110109 | 8 | 202 | 0.0 | 3.2 | 0.00 | 0.13 | 0.13 | 91 | 1007.9 |
| 20260507105606 | 8 | 113 | 0.0 | 3.2 | 0.00 | 0.13 | 0.13 | 92 | 1007.7 |
| 20260507105101 | 8 | 66 | 0.0 | 1.6 | 0.00 | 0.13 | 0.13 | 92 | 1007.7 |
| 20260507104559 | 8 | 118 | 1.6 | 3.2 | 0.00 | 0.13 | 0.13 | 92 | 1008.2 |
| 20260507104056 | 8 | 118 | 3.2 | 4.8 | 0.00 | 0.13 | 0.13 | 92 | 1008.1 |
| 20260507103552 | 8 | 97 | 0.0 | 3.2 | 0.00 | 0.13 | 0.13 | 92 | 1008.1 |
| 20260507103049 | 8 | 96 | 3.2 | 3.2 | 0.00 | 0.13 | 0.13 | 92 | 1008.1 |
| 20260507102545 | 8 | 109 | 3.2 | 3.2 | 0.00 | 0.13 | 0.13 | 92 | 1007.7 |
| 20260507102041 | 8 | 97 | 3.2 | 3.2 | 0.00 | 0.13 | 0.13 | 92 | 1007.6 |
| 20260507101537 | 8 | 108 | 3.2 | 3.2 | 0.00 | 0.13 | 0.13 | 92 | 1007.6 |
| 20260507101033 | 8 | 92 | 1.6 | 4.8 | 0.05 | 0.13 | 0.13 | 91 | 1007.5 |
| 20260507100531 | 8 | 108 | 1.6 | 6.4 | 0.13 | 0.13 | 0.13 | 91 | 1007.2 |
| 20260507100029 | 8 | 139 | 1.6 | 3.2 | 0.05 | 0.10 | 0.10 | 92 | 1007.1 |
| 20260507095526 | 8 | 126 | 0.0 | 3.2 | 0.00 | 0.10 | 0.10 | 92 | 1007.2 |
| 20260507095023 | 8 | 124 | 0.0 | 3.2 | 0.00 | 0.10 | 0.10 | 92 | 1007.4 |
| 20260507094519 | 8 | 113 | 3.2 | 6.4 | 0.00 | 0.10 | 0.10 | 92 | 1007.3 |
| 20260507094016 | 8 | 95 | 3.2 | 3.2 | 0.00 | 0.10 | 0.10 | 92 | 1007.0 |
| 20260507093514 | 8 | 89 | 0.0 | 3.2 | 0.05 | 0.10 | 0.10 | 92 | 1007.2 |
| 20260507093012 | 8 | 131 | 0.0 | 3.2 | 0.05 | 0.10 | 0.10 | 92 | 1007.3 |
| 20260507092508 | 8 | 53 | 0.0 | 4.8 | 0.00 | 0.10 | 0.10 | 91 | 1007.2 |
| 20260507092005 | 8 | 110 | 0.0 | 3.2 | 0.05 | 0.10 | 0.10 | 90 | 1007.7 |
| 20260507091502 | 8 | 123 | 1.6 | 3.2 | 0.18 | 0.10 | 0.10 | 89 | 1007.4 |
| 20260507090957 | 8 | 75 | 0.0 | 3.2 | 0.13 | 0.08 | 0.08 | 89 | 1007.5 |
| 20260507090453 | 8 | 152 | 1.6 | 4.8 | 0.05 | 0.05 | 0.05 | 87 | 1007.5 |
| 20260507085950 | 8 | 212 | 0.0 | 9.7 | 0.05 | 0.05 | 0.05 | 86 | 1007.6 |
| 20260507085447 | 8 | 235 | 1.6 | 3.2 | 0.13 | 0.05 | 0.05 | 86 | 1007.7 |
| 20260507084944 | 9 | 104 | 1.6 | 3.2 | 0.05 | 0.05 | 0.05 | 85 | 1007.9 |
| 20260507084441 | 9 | 145 | 0.0 | 4.8 | 0.00 | 0.03 | 0.03 | 84 | 1007.8 |
| 20260507083938 | 9 | 127 | 0.0 | 3.2 | 0.00 | 0.03 | 0.03 | 83 | 1007.9 |
| 20260507083434 | 9 | 188 | 0.0 | 3.2 | 0.00 | 0.03 | 0.03 | 83 | 1007.6 |
| 20260507082931 | 9 | 111 | 0.0 | 8.0 | 0.00 | 0.03 | 0.03 | 83 | 1007.8 |
| 20260507082427 | 9 | 127 | 4.8 | 4.8 | 0.00 | 0.03 | 0.03 | 83 | 1007.5 |
| 20260507081924 | 9 | 191 | 1.6 | 6.4 | 0.00 | 0.03 | 0.03 | 83 | 1007.7 |
| 20260507081420 | 9 | 229 | 3.2 | 3.2 | 0.00 | 0.03 | 0.03 | 83 | 1007.5 |
| 20260507080917 | 9 | 199 | 1.6 | 3.2 | 0.00 | 0.03 | 0.03 | 84 | 1007.5 |
| 20260507080413 | 9 | 127 | 0.0 | 3.2 | 0.00 | 0.03 | 0.03 | 84 | 1007.0 |
| 20260507075908 | 9 | 136 | 0.0 | 3.2 | 0.00 | 0.03 | 0.03 | 84 | 1007.2 |
| 20260507075405 | 9 | 79 | 3.2 | 3.2 | 0.00 | 0.03 | 0.03 | 84 | 1007.4 |
| 20260507074901 | 9 | 215 | 1.6 | 3.2 | 0.00 | 0.03 | 0.03 | 84 | 1007.6 |
| 20260507074358 | 9 | 210 | 4.8 | 4.8 | 0.00 | 0.03 | 0.03 | 84 | 1007.6 |
| 20260507073856 | 10 | 116 | 0.0 | 4.8 | 0.05 | 0.03 | 0.03 | 84 | 1007.7 |
| 20260507073352 | 10 | 156 | 0.0 | 4.8 | 0.18 | 0.03 | 0.03 | 83 | 1007.3 |
| 20260507072849 | 10 | 119 | 4.8 | 6.4 | 0.05 | 0.00 | 0.00 | 80 | 1007.1 |
| 20260507072347 | 10 | 150 | 0.0 | 4.8 | 0.00 | 0.00 | 0.00 | 78 | 1007.5 |
| 20260507071844 | 10 | 56 | 0.0 | 8.0 | 0.00 | 0.00 | 0.00 | 78 | 1007.5 |
| 20260507071341 | 11 | 86 | 0.0 | 4.8 | 0.00 | 0.00 | 0.00 | 78 | 1006.9 |
| 20260507070837 | 11 | 165 | 3.2 | 8.0 | 0.00 | 0.00 | 0.00 | 78 | 1006.7 |
| 20260507070335 | 11 | 185 | 1.6 | 4.8 | 0.00 | 0.00 | 0.00 | 79 | 1006.9 |
| 20260507065831 | 11 | 70 | 1.6 | 8.0 | 0.00 | 0.00 | 0.00 | 80 | 1007.0 |
| 20260507065328 | 11 | 95 | 0.0 | 4.8 | 0.00 | 0.00 | 0.00 | 80 | 1006.8 |
| 20260507064825 | 11 | 177 | 4.8 | 6.4 | 0.00 | 0.00 | 0.00 | 79 | 1006.7 |
| 20260507064324 | 11 | 60 | 0.0 | 3.2 | 0.00 | 0.00 | 0.00 | 79 | 1006.7 |
| 20260507063821 | 11 | 161 | 1.6 | 3.2 | 0.00 | 0.00 | 0.00 | 79 | 1006.5 |
| 20260507063318 | 11 | 178 | 4.8 | 6.4 | 0.00 | 0.00 | 0.00 | 80 | 1006.5 |
| 20260507062815 | 11 | 224 | 0.0 | 3.2 | 0.00 | 0.00 | 0.00 | 82 | 1006.7 |
| 20260507062312 | 11 | 213 | 1.6 | 4.8 | 0.00 | 0.00 | 0.00 | 81 | 1006.7 |
| 20260507061810 | 11 | 176 | 3.2 | 6.4 | 0.00 | 0.00 | 0.00 | 82 | 1006.8 |
| 20260507061307 | 12 | 297 | 0.0 | 3.2 | 0.00 | 0.00 | 0.00 | 84 | 1006.8 |
| 20260507060806 | 12 | 175 | 1.6 | 3.2 | 0.00 | 0.00 | 0.00 | 84 | 1006.8 |
| 20260507060302 | 12 | 175 | 0.0 | 3.2 | 0.00 | 0.00 | 0.00 | 84 | 1006.6 |
| 20260507055758 | 12 | 162 | 3.2 | 3.2 | 0.00 | 0.00 | 0.00 | 84 | 1006.5 |
| 20260507055254 | 12 | 150 | 3.2 | 4.8 | 0.00 | 0.00 | 0.00 | 83 | 1006.7 |
| 20260507054750 | 12 | 129 | 0.0 | 3.2 | 0.00 | 0.00 | 0.00 | 83 | 1006.8 |
| 20260507054247 | 12 | 144 | 0.0 | 6.4 | 0.00 | 0.00 | 0.00 | 82 | 1006.9 |
| 20260507053744 | 12 | 32 | 0.0 | 1.6 | 0.00 | 0.00 | 0.00 | 84 | 1007.1 |
| 20260507053242 | 12 | 184 | 1.6 | 6.4 | 0.00 | 0.00 | 0.00 | 83 | 1006.7 |
| 20260507052741 | 12 | 117 | 3.2 | 3.2 | 0.00 | 0.00 | 0.00 | 82 | 1006.9 |
| 20260507052236 | 12 | 295 | 3.2 | 6.4 | 0.00 | 0.00 | 0.00 | 82 | 1006.9 |
| 20260507051735 | 12 | 155 | 3.2 | 8.0 | 0.00 | 0.00 | 0.00 | 81 | 1007.0 |
| 20260507051231 | 12 | 241 | 3.2 | 9.7 | 0.00 | 0.00 | 0.00 | 82 | 1006.9 |
| 20260507050728 | 12 | 221 | 0.0 | 6.4 | 0.00 | 0.00 | 0.00 | 82 | 1006.9 |
| 20260507050225 | 12 | 218 | 4.8 | 8.0 | 0.00 | 0.00 | 0.00 | 81 | 1006.7 |
| 20260507045722 | 13 | 195 | 3.2 | 6.4 | 0.00 | 0.00 | 0.00 | 82 | 1006.9 |
| 20260507045218 | 13 | 214 | 0.0 | 3.2 | 0.00 | 0.00 | 0.00 | 82 | 1006.8 |
| 20260507044715 | 13 | 110 | 0.0 | 4.8 | 0.00 | 0.00 | 0.00 | 82 | 1006.9 |
| 20260507044212 | 13 | 355 | 1.6 | 6.4 | 0.00 | 0.00 | 0.00 | 82 | 1007.1 |
| 20260507043708 | 13 | 94 | 0.0 | 9.7 | 0.00 | 0.00 | 0.00 | 82 | 1007.1 |
| 20260507043205 | 13 | 166 | 4.8 | 6.4 | 0.00 | 0.00 | 0.00 | 83 | 1006.8 |
| 20260507042701 | 13 | 164 | 3.2 | 9.7 | 0.00 | 0.00 | 0.00 | 85 | 1006.8 |
| 20260507042156 | 13 | 247 | 6.4 | 6.4 | 0.00 | 0.00 | 0.00 | 87 | 1006.7 |
| 20260507041654 | 14 | 208 | 0.0 | 9.7 | 0.00 | 0.00 | 0.00 | 87 | 1006.8 |
| 20260507041150 | 14 | 181 | 3.2 | 4.8 | 0.00 | 0.00 | 0.00 | 87 | 1006.9 |
| 20260507040647 | 14 | 182 | 3.2 | 6.4 | 0.00 | 0.00 | 0.00 | 87 | 1006.9 |
| 20260507040143 | 14 | 56 | 3.2 | 6.4 | 0.00 | 0.00 | 0.00 | 87 | 1006.7 |
| 20260507035639 | 14 | 176 | 1.6 | 6.4 | 0.00 | 0.25 | 0.25 | 86 | 1006.8 |
| 20260507035136 | 15 | 46 | 3.2 | 3.2 | 0.00 | 0.25 | 0.25 | 86 | 1006.8 |
| 20260507034633 | 15 | 174 | 3.2 | 8.0 | 0.00 | 0.25 | 0.25 | 85 | 1007.0 |
| 20260507034130 | 15 | 227 | 3.2 | 4.8 | 0.00 | 0.25 | 0.25 | 87 | 1006.9 |
| 20260507033628 | 15 | 249 | 1.6 | 3.2 | 0.00 | 0.25 | 0.25 | 88 | 1006.9 |
| 20260507033125 | 15 | 227 | 0.0 | 4.8 | 0.00 | 0.25 | 0.25 | 91 | 1006.6 |
| 20260507032623 | 15 | 251 | 3.2 | 4.8 | 0.00 | 0.25 | 0.25 | 92 | 1006.4 |
| 20260507032119 | 15 | 206 | 0.0 | 1.6 | 0.00 | 0.25 | 0.25 | 93 | 1006.4 |
| 20260507031615 | 15 | 136 | 3.2 | 4.8 | 0.00 | 0.25 | 0.25 | 93 | 1006.4 |
| 20260507031112 | 15 | 154 | 0.0 | 3.2 | 0.00 | 0.25 | 0.25 | 93 | 1006.5 |
| 20260507030609 | 15 | 120 | 3.2 | 4.8 | 0.00 | 0.25 | 0.25 | 93 | 1006.2 |
| 20260507030107 | 15 | 31 | 1.6 | 8.0 | 0.00 | 0.25 | 0.25 | 93 | 1006.0 |
| 20260507025603 | 15 | 138 | 8.0 | 9.7 | 0.00 | 0.25 | 0.25 | 93 | 1006.2 |
| 20260507025100 | 15 | 145 | 4.8 | 6.4 | 0.00 | 0.25 | 0.25 | 93 | 1006.1 |
| 20260507024559 | 15 | 93 | 3.2 | 6.4 | 0.00 | 0.25 | 0.25 | 92 | 1006.3 |
| 20260507024055 | 15 | 107 | 3.2 | 8.0 | 0.00 | 0.25 | 0.25 | 92 | 1005.9 |
| 20260507023551 | 15 | 126 | 6.4 | 9.7 | 0.00 | 0.25 | 0.25 | 92 | 1005.9 |
| 20260507023049 | 15 | 150 | 8.0 | 8.0 | 0.00 | 0.25 | 0.25 | 93 | 1005.9 |
| 20260507022545 | 15 | 135 | 4.8 | 9.7 | 0.00 | 0.25 | 0.25 | 93 | 1006.0 |
| 20260507022040 | 15 | 153 | 9.7 | 9.7 | 0.00 | 0.25 | 0.25 | 93 | 1006.0 |
| 20260507021537 | 15 | 144 | 4.8 | 14.5 | 0.00 | 0.25 | 0.25 | 93 | 1006.1 |
| 20260507021033 | 15 | 139 | 6.4 | 8.0 | 0.00 | 0.25 | 0.25 | 93 | 1006.0 |
| 20260507020531 | 15 | 141 | 6.4 | 9.7 | 0.00 | 0.25 | 0.25 | 93 | 1005.6 |
| 20260507020027 | 15 | 127 | 4.8 | 4.8 | 0.00 | 0.25 | 0.25 | 93 | 1005.9 |
| 20260507015526 | 14 | 128 | 6.4 | 11.3 | 0.00 | 0.25 | 0.25 | 94 | 1006.1 |
| 20260507015023 | 14 | 111 | 4.8 | 8.0 | 0.00 | 0.25 | 0.25 | 93 | 1006.0 |
| 20260507014519 | 14 | 122 | 4.8 | 6.4 | 0.00 | 0.25 | 0.25 | 94 | 1006.0 |
| 20260507014015 | 14 | 111 | 3.2 | 6.4 | 0.00 | 0.25 | 0.25 | 94 | 1005.9 |
| 20260507013512 | 14 | 104 | 4.8 | 6.4 | 0.00 | 0.25 | 0.25 | 94 | 1005.9 |
| 20260507013009 | 14 | 95 | 3.2 | 8.0 | 0.00 | 0.25 | 0.25 | 94 | 1005.9 |
| 20260507012506 | 14 | 114 | 6.4 | 8.0 | 0.00 | 0.25 | 0.25 | 94 | 1006.0 |
| 20260507012003 | 14 | 121 | 3.2 | 8.0 | 0.00 | 0.25 | 0.25 | 94 | 1006.0 |
| 20260507011500 | 15 | 136 | 6.4 | 6.4 | 0.00 | 0.25 | 0.25 | 93 | 1006.0 |
| 20260507010955 | 14 | 135 | 6.4 | 12.9 | 0.00 | 0.25 | 0.25 | 93 | 1006.1 |
| 20260507010450 | 14 | 125 | 6.4 | 9.7 | 0.00 | 0.25 | 0.25 | 94 | 1006.3 |
| 20260507005947 | 14 | 131 | 9.7 | 14.5 | 0.00 | 0.25 | 0.25 | 94 | 1006.4 |
| 20260507005445 | 14 | 142 | 6.4 | 11.3 | 0.05 | 0.25 | 0.25 | 94 | 1006.2 |
| 20260507004941 | 14 | 141 | 6.4 | 6.4 | 0.05 | 0.25 | 0.25 | 94 | 1006.2 |
| 20260507004437 | 14 | 146 | 9.7 | 11.3 | 0.00 | 0.25 | 0.25 | 94 | 1006.1 |
| 20260507003936 | 14 | 139 | 9.7 | 9.7 | 0.00 | 0.25 | 0.25 | 94 | 1006.3 |
| 20260507003430 | 14 | 145 | 6.4 | 9.7 | 0.00 | 0.25 | 0.25 | 94 | 1006.3 |
| 20260507002926 | 14 | 140 | 6.4 | 8.0 | 0.00 | 0.25 | 0.25 | 94 | 1006.2 |
| 20260507002422 | 14 | 113 | 3.2 | 6.4 | 0.00 | 0.25 | 0.25 | 94 | 1006.3 |
| 20260507001919 | 14 | 147 | 9.7 | 9.7 | 0.00 | 0.25 | 0.25 | 94 | 1006.2 |
| 20260507001416 | 14 | 127 | 6.4 | 6.4 | 0.00 | 0.25 | 0.25 | 94 | 1006.2 |
| 20260507000914 | 14 | 121 | 4.8 | 6.4 | 0.00 | 0.25 | 0.25 | 94 | 1005.9 |
| 20260507000408 | 14 | 115 | 6.4 | 8.0 | 0.00 | 0.25 | 0.25 | 94 | 1006.1 |
| 20260506235905 | 14 | 112 | 6.4 | 8.0 | 0.00 | 0.25 | 0.25 | 94 | 1005.9 |
| 20260506235402 | 14 | 116 | 4.8 | 9.7 | 0.00 | 0.25 | 0.25 | 94 | 1005.9 |
| 20260506234858 | 14 | 117 | 6.4 | 8.0 | 0.00 | 0.25 | 0.25 | 94 | 1005.8 |
| 20260506234355 | 14 | 136 | 6.4 | 9.7 | 0.05 | 0.25 | 0.25 | 94 | 1005.7 |
| 20260506233853 | 14 | 106 | 3.2 | 8.0 | 0.05 | 0.25 | 0.25 | 94 | 1005.9 |
| 20260506233349 | 14 | 117 | 6.4 | 8.0 | 0.00 | 0.23 | 0.23 | 94 | 1005.9 |
| 20260506232846 | 14 | 112 | 6.4 | 9.7 | 0.05 | 0.23 | 0.23 | 94 | 1005.7 |
| 20260506232342 | 14 | 131 | 4.8 | 9.7 | 0.13 | 0.23 | 0.23 | 94 | 1005.6 |
| 20260506231838 | 15 | 122 | 6.4 | 9.7 | 0.05 | 0.23 | 0.23 | 94 | 1005.8 |
| 20260506231336 | 15 | 110 | 6.4 | 8.0 | 0.00 | 0.23 | 0.23 | 94 | 1005.9 |
| 20260506230833 | 15 | 118 | 4.8 | 8.0 | 0.00 | 0.23 | 0.23 | 94 | 1005.6 |
| 20260506230330 | 15 | 124 | 4.8 | 8.0 | 0.13 | 0.23 | 0.23 | 94 | 1005.9 |
| 20260506225826 | 15 | 114 | 3.2 | 6.4 | 0.13 | 0.20 | 0.20 | 93 | 1005.7 |
| 20260506225324 | 15 | 146 | 6.4 | 8.0 | 0.13 | 0.20 | 0.20 | 93 | 1005.7 |
| 20260506224820 | 15 | 139 | 9.7 | 9.7 | 0.05 | 0.18 | 0.18 | 93 | 1005.6 |
| 20260506224318 | 15 | 113 | 3.2 | 8.0 | 0.00 | 0.18 | 0.18 | 93 | 1005.9 |
| 20260506223814 | 15 | 114 | 3.2 | 8.0 | 0.00 | 0.18 | 0.18 | 93 | 1005.9 |
| 20260506223309 | 15 | 102 | 3.2 | 9.7 | 0.00 | 0.18 | 0.18 | 93 | 1006.1 |
| 20260506222807 | 15 | 123 | 6.4 | 6.4 | 0.05 | 0.18 | 0.18 | 93 | 1006.1 |
| 20260506222305 | 15 | 152 | 8.0 | 11.3 | 0.05 | 0.18 | 0.18 | 92 | 1006.0 |
| 20260506221800 | 15 | 109 | 6.4 | 8.0 | 0.00 | 0.18 | 0.18 | 92 | 1006.0 |
| 20260506221258 | 15 | 116 | 4.8 | 6.4 | 0.00 | 0.18 | 0.18 | 92 | 1006.1 |
| 20260506220755 | 15 | 116 | 3.2 | 8.0 | 0.00 | 0.18 | 0.18 | 92 | 1006.3 |
| 20260506220255 | 15 | 136 | 4.8 | 6.4 | 0.00 | 0.18 | 0.18 | 92 | 1006.3 |
| 20260506215752 | 15 | 129 | 6.4 | 6.4 | 0.00 | 0.18 | 0.18 | 91 | 1006.2 |
| 20260506215248 | 15 | 116 | 6.4 | 9.7 | 0.00 | 0.18 | 0.18 | 91 | 1006.3 |
| 20260506214744 | 15 | 95 | 6.4 | 9.7 | 0.00 | 0.18 | 0.18 | 91 | 1006.1 |
| 20260506214241 | 15 | 140 | 9.7 | 16.1 | 0.05 | 0.18 | 0.18 | 91 | 1006.1 |
| 20260506213740 | 15 | 135 | 6.4 | 11.3 | 0.13 | 0.18 | 0.18 | 91 | 1006.6 |
| 20260506213237 | 15 | 146 | 8.0 | 11.3 | 0.05 | 0.15 | 0.15 | 90 | 1006.6 |
| 20260506212734 | 15 | 111 | 4.8 | 8.0 | 0.00 | 0.15 | 0.15 | 90 | 1006.5 |
| 20260506212230 | 15 | 108 | 4.8 | 6.4 | 0.00 | 0.15 | 0.15 | 90 | 1006.4 |
| 20260506211725 | 15 | 109 | 6.4 | 8.0 | 0.00 | 0.15 | 0.15 | 90 | 1006.5 |
| 20260506211222 | 15 | 75 | 3.2 | 11.3 | 0.00 | 0.15 | 0.15 | 90 | 1006.6 |
| 20260506210719 | 15 | 169 | 3.2 | 8.0 | 0.00 | 0.15 | 0.15 | 90 | 1006.6 |
| 20260506210216 | 15 | 154 | 19.3 | 19.3 | 0.00 | 0.15 | 0.15 | 90 | 1006.6 |
| 20260506205713 | 15 | 139 | 6.4 | 6.4 | 0.00 | 0.15 | 0.15 | 90 | 1006.7 |
| 20260506205208 | 15 | 118 | 4.8 | 8.0 | 0.00 | 0.15 | 0.15 | 90 | 1006.7 |
| 20260506204705 | 15 | 115 | 8.0 | 8.0 | 0.00 | 0.15 | 0.15 | 90 | 1006.7 |
| 20260506204202 | 15 | 146 | 6.4 | 9.7 | 0.00 | 0.15 | 0.15 | 89 | 1006.6 |
| 20260506203700 | 15 | 99 | 4.8 | 9.7 | 0.00 | 0.15 | 0.15 | 89 | 1006.8 |
| 20260506203157 | 15 | 144 | 8.0 | 12.9 | 0.05 | 0.15 | 0.15 | 89 | 1007.0 |
| 20260506202655 | 15 | 130 | 6.4 | 8.0 | 0.05 | 0.15 | 0.15 | 89 | 1007.1 |
| 20260506202150 | 15 | 112 | 6.4 | 11.3 | 0.00 | 0.15 | 0.15 | 89 | 1006.9 |
| 20260506201648 | 15 | 116 | 9.7 | 12.9 | 0.00 | 0.15 | 0.15 | 90 | 1006.9 |
| 20260506201144 | 15 | 141 | 6.4 | 8.0 | 0.00 | 0.15 | 0.15 | 90 | 1006.8 |
| 20260506200641 | 15 | 100 | 3.2 | 8.0 | 0.00 | 0.15 | 0.15 | 90 | 1007.0 |
| 20260506200138 | 15 | 134 | 8.0 | 9.7 | 0.00 | 0.15 | 0.15 | 90 | 1006.9 |
| 20260506195635 | 15 | 127 | 6.4 | 9.7 | 0.00 | 0.15 | 0.15 | 90 | 1006.8 |
| 20260506195131 | 15 | 125 | 6.4 | 6.4 | 0.00 | 0.15 | 0.15 | 90 | 1006.9 |
| 20260506194629 | 15 | 134 | 6.4 | 9.7 | 0.00 | 0.15 | 0.15 | 89 | 1007.0 |
| 20260506194124 | 15 | 146 | 6.4 | 9.7 | 0.05 | 0.15 | 0.15 | 89 | 1006.9 |
| 20260506193623 | 15 | 149 | 9.7 | 9.7 | 0.13 | 0.15 | 0.15 | 89 | 1007.1 |
| 20260506193120 | 15 | 115 | 6.4 | 9.7 | 0.23 | 0.13 | 0.13 | 88 | 1007.1 |